| time (UTC) | temp F | wind direction | speed knots | gust knots | rain 1hr in | rain 24hr in | rain mn in | humidity % | barometer mb |
| 20260906050046 | 71 | 339 | 0.0 | 3.5 | 0.00 | 0.00 | 0.00 | 42 | 1004.8 |
| 20260906044544 | 73 | 339 | 1.7 | 3.5 | 0.00 | 0.00 | 0.00 | 42 | 1004.7 |
| 20260906043043 | 76 | 330 | 1.7 | 3.5 | 0.00 | 0.00 | 0.00 | 36 | 1004.7 |
| 20260906041543 | 80 | 178 | 0.9 | 3.5 | 0.00 | 0.00 | 0.00 | 28 | 1004.7 |
| 20260906040043 | 81 | 178 | 0.0 | 2.6 | 0.00 | 0.00 | 0.00 | 20 | 1004.6 |
| 20260906034547 | 82 | 175 | 3.5 | 7.0 | 0.00 | 0.00 | 0.00 | 20 | 1004.5 |
| 20260906033041 | 82 | 182 | 2.6 | 8.7 | 0.00 | 0.00 | 0.00 | 20 | 1004.4 |
| 20260906031541 | 82 | 180 | 0.0 | 4.3 | 0.00 | 0.00 | 0.00 | 21 | 1004.2 |
| 20260906030041 | 82 | 192 | 1.7 | 5.2 | 0.00 | 0.00 | 0.00 | 20 | 1003.9 |
| 20260906024551 | 83 | 191 | 2.6 | 6.1 | 0.00 | 0.00 | 0.00 | 20 | 1003.8 |
| 20260906023038 | 83 | 188 | 2.6 | 5.2 | 0.00 | 0.00 | 0.00 | 20 | 1003.4 |
| 20260906021538 | 84 | 184 | 0.9 | 4.3 | 0.00 | 0.00 | 0.00 | 20 | 1003.3 |
| 20260906020046 | 86 | 159 | 0.0 | 1.7 | 0.00 | 0.00 | 0.00 | 20 | 1003.2 |
| 20260906014550 | 87 | 159 | 1.7 | 6.1 | 0.00 | 0.00 | 0.00 | 17 | 1003.2 |
| 20260906013036 | 88 | 182 | 2.6 | 7.8 | 0.00 | 0.00 | 0.00 | 17 | 1003.4 |
| 20260906011541 | 89 | 222 | 4.3 | 7.0 | 0.00 | 0.00 | 0.00 | 16 | 1003.4 |
| 20260906010036 | 90 | 181 | 5.2 | 7.8 | 0.00 | 0.00 | 0.00 | 16 | 1003.5 |
| 20260906004541 | 91 | 159 | 2.6 | 7.0 | 0.00 | 0.00 | 0.00 | 16 | 1003.5 |
| 20260906003047 | 92 | 220 | 0.9 | 5.2 | 0.00 | 0.00 | 0.00 | 15 | 1003.4 |
| 20260906001504 | 92 | 182 | 0.9 | 2.6 | 0.00 | 0.00 | 0.00 | 15 | 1003.4 |
| 20260906000003 | 92 | 198 | 5.2 | 11.3 | 0.00 | 0.00 | 0.00 | 14 | 1003.4 |
| 20260905234503 | 93 | 190 | 2.6 | 9.6 | 0.00 | 0.00 | 0.00 | 14 | 1003.5 |
| 20260905233003 | 93 | 187 | 4.3 | 11.3 | 0.00 | 0.00 | 0.00 | 14 | 1003.6 |
| 20260905231502 | 94 | 187 | 4.3 | 9.6 | 0.00 | 0.00 | 0.00 | 14 | 1003.8 |
| 20260905230001 | 94 | 158 | 5.2 | 8.7 | 0.00 | 0.00 | 0.00 | 13 | 1003.8 |
| 20260905224601 | 94 | 219 | 6.1 | 12.2 | 0.00 | 0.00 | 0.00 | 13 | 1003.8 |
| 20260905223009 | 93 | 219 | 4.3 | 10.4 | 0.00 | 0.00 | 0.00 | 13 | 1004.0 |
| 20260905221527 | 93 | 209 | 2.6 | 12.2 | 0.00 | 0.00 | 0.00 | 13 | 1004.2 |
| 20260905220016 | 93 | 206 | 5.2 | 10.4 | 0.00 | 0.00 | 0.00 | 12 | 1004.5 |
| 20260905214512 | 93 | 252 | 3.5 | 11.3 | 0.00 | 0.00 | 0.00 | 12 | 1004.5 |
| 20260905213039 | 93 | 234 | 5.2 | 10.4 | 0.00 | 0.00 | 0.00 | 13 | 1004.7 |
| 20260905211614 | 93 | 215 | 3.5 | 13.9 | 0.00 | 0.00 | 0.00 | 13 | 1004.9 |
| 20260905210027 | 93 | 239 | 4.3 | 12.2 | 0.00 | 0.00 | 0.00 | 13 | 1005.1 |
| 20260905204510 | 93 | 200 | 6.1 | 12.2 | 0.00 | 0.00 | 0.00 | 12 | 1005.3 |
| 20260905203014 | 92 | 202 | 5.2 | 13.0 | 0.00 | 0.00 | 0.00 | 13 | 1005.4 |
| 20260905201523 | 92 | 171 | 7.0 | 13.9 | 0.00 | 0.00 | 0.00 | 13 | 1005.5 |
| 20260905200054 | 92 | 156 | 7.0 | 13.0 | 0.00 | 0.00 | 0.00 | 14 | 1005.9 |
| 20260905194548 | 92 | 208 | 2.6 | 5.2 | 0.00 | 0.00 | 0.00 | 14 | 1006.0 |
| 20260905193004 | 91 | 237 | 4.3 | 10.4 | 0.00 | 0.00 | 0.00 | 16 | 1006.2 |
| 20260905191518 | 90 | 217 | 4.3 | 16.5 | 0.00 | 0.00 | 0.00 | 15 | 1006.4 |
| 20260905190029 | 90 | 279 | 4.3 | 12.2 | 0.00 | 0.00 | 0.00 | 15 | 1006.5 |
| 20260905184611 | 90 | 200 | 5.2 | 11.3 | 0.00 | 0.00 | 0.00 | 18 | 1006.7 |
| 20260905183009 | 89 | 165 | 4.3 | 13.9 | 0.00 | 0.00 | 0.00 | 17 | 1006.9 |
| 20260905181523 | 88 | 221 | 3.5 | 13.9 | 0.00 | 0.00 | 0.00 | 18 | 1006.8 |
| 20260905180032 | 88 | 250 | 7.0 | 17.4 | 0.00 | 0.00 | 0.00 | 21 | 1006.8 |
| 20260905174531 | 88 | 213 | 6.1 | 10.4 | 0.00 | 0.00 | 0.00 | 23 | 1006.9 |
| 20260905173026 | 88 | 263 | 3.5 | 8.7 | 0.00 | 0.00 | 0.00 | 26 | 1007.0 |
| 20260905171513 | 87 | 145 | 0.9 | 7.8 | 0.00 | 0.00 | 0.00 | 27 | 1007.1 |
| 20260905170013 | 86 | 112 | 0.9 | 5.2 | 0.00 | 0.00 | 0.00 | 27 | 1007.1 |
| 20260905164558 | 85 | 111 | 1.7 | 7.0 | 0.00 | 0.00 | 0.00 | 28 | 1007.2 |
| 20260905163107 | 83 | 161 | 2.6 | 6.1 | 0.00 | 0.00 | 0.00 | 31 | 1007.3 |
| 20260905161558 | 80 | 166 | 0.9 | 4.3 | 0.00 | 0.00 | 0.00 | 34 | 1007.2 |
| 20260905160055 | 77 | 80 | 0.0 | 1.7 | 0.00 | 0.00 | 0.00 | 38 | 1007.3 |
| 20260905154556 | 74 | 72 | 0.0 | 0.9 | 0.00 | 0.00 | 0.00 | 42 | 1007.2 |
| 20260905153046 | 72 | 72 | 1.7 | 4.3 | 0.00 | 0.00 | 0.00 | 48 | 1007.1 |
| 20260905151550 | 71 | 74 | 0.9 | 2.6 | 0.00 | 0.00 | 0.00 | 49 | 1007.1 |
| 20260905150052 | 70 | 74 | 0.0 | 0.9 | 0.00 | 0.00 | 0.00 | 52 | 1007.1 |
| 20260905144547 | 69 | 74 | 0.0 | 1.7 | 0.00 | 0.00 | 0.00 | 54 | 1007.1 |
| 20260905143049 | 70 | 83 | 4.3 | 6.1 | 0.00 | 0.00 | 0.00 | 49 | 1006.8 |
| 20260905141532 | 70 | 209 | 2.6 | 4.3 | 0.00 | 0.00 | 0.00 | 43 | 1006.7 |
| 20260905140031 | 68 | 212 | 3.5 | 5.2 | 0.00 | 0.00 | 0.00 | 47 | 1006.3 |
| 20260905134529 | 66 | 219 | 2.6 | 3.5 | 0.00 | 0.00 | 0.00 | 50 | 1006.2 |
| 20260905133026 | 65 | 236 | 0.9 | 2.6 | 0.00 | 0.00 | 0.00 | 49 | 1006.1 |
| 20260905131538 | 64 | 238 | 2.6 | 3.5 | 0.00 | 0.00 | 0.00 | 52 | 1005.9 |
| 20260905130025 | 63 | 268 | 0.0 | 0.9 | 0.00 | 0.00 | 0.00 | 58 | 1005.7 |
| 20260905124524 | 63 | 268 | 0.0 | 0.9 | 0.00 | 0.00 | 0.00 | 61 | 1005.6 |
| 20260905123019 | 63 | 268 | 0.9 | 2.6 | 0.00 | 0.00 | 0.00 | 60 | 1005.4 |
| 20260905121518 | 63 | 268 | 0.0 | 1.7 | 0.00 | 0.00 | 0.00 | 60 | 1005.2 |
| 20260905120017 | 63 | 268 | 1.7 | 2.6 | 0.00 | 0.00 | 0.00 | 61 | 1005.4 |
| 20260905114522 | 64 | 268 | 0.0 | 5.2 | 0.00 | 0.00 | 0.00 | 60 | 1005.2 |
| 20260905113015 | 65 | 53 | 0.0 | 1.7 | 0.00 | 0.00 | 0.00 | 54 | 1005.3 |
| 20260905111510 | 65 | 53 | 0.9 | 2.6 | 0.00 | 0.00 | 0.00 | 54 | 1005.2 |
| 20260905110009 | 65 | 53 | 0.0 | 1.7 | 0.00 | 0.00 | 0.00 | 54 | 1005.2 |
| 20260905104512 | 66 | 53 | 0.0 | 0.9 | 0.00 | 0.00 | 0.00 | 52 | 1005.1 |
| 20260905103010 | 67 | 53 | 0.0 | 1.7 | 0.00 | 0.00 | 0.00 | 50 | 1005.1 |
| 20260905101503 | 68 | 53 | 0.0 | 2.6 | 0.00 | 0.00 | 0.00 | 45 | 1005.0 |
| 20260905100109 | 67 | 51 | 0.9 | 2.6 | 0.00 | 0.00 | 0.00 | 45 | 1004.8 |
| 20260905094559 | 68 | 50 | 0.9 | 2.6 | 0.00 | 0.00 | 0.00 | 45 | 1004.7 |
| 20260905093100 | 68 | 47 | 0.0 | 0.9 | 0.00 | 0.00 | 0.00 | 47 | 1004.5 |
| 20260905091604 | 69 | 47 | 0.0 | 0.0 | 0.00 | 0.00 | 0.00 | 51 | 1004.4 |
| 20260905090055 | 70 | 47 | 0.9 | 4.3 | 0.00 | 0.00 | 0.00 | 43 | 1004.4 |
| 20260905084553 | 71 | 350 | 1.7 | 4.3 | 0.00 | 0.00 | 0.00 | 44 | 1004.3 |
| 20260905083050 | 72 | 103 | 0.0 | 2.6 | 0.00 | 0.00 | 0.00 | 38 | 1004.0 |
| 20260905081552 | 72 | 103 | 2.6 | 5.2 | 0.00 | 0.00 | 0.00 | 36 | 1004.1 |
| 20260905080053 | 70 | 65 | 0.0 | 1.7 | 0.00 | 0.00 | 0.00 | 42 | 1004.0 |
| 20260905074545 | 70 | 64 | 0.0 | 3.5 | 0.00 | 0.00 | 0.00 | 46 | 1003.9 |
| 20260905073042 | 69 | 49 | 0.0 | 0.0 | 0.00 | 0.00 | 0.00 | 48 | 1003.9 |
| 20260905071541 | 68 | 49 | 0.0 | 0.0 | 0.00 | 0.00 | 0.00 | 49 | 1003.8 |
| 20260905070039 | 68 | 50 | 0.0 | 0.0 | 0.00 | 0.00 | 0.00 | 44 | 1003.3 |
| 20260905064545 | 69 | 49 | 0.0 | 1.7 | 0.00 | 0.00 | 0.00 | 46 | 1003.4 |
| 20260905063038 | 69 | 34 | 0.0 | 0.9 | 0.00 | 0.00 | 0.00 | 45 | 1003.2 |
| 20260905061532 | 69 | 34 | 0.0 | 0.0 | 0.00 | 0.00 | 0.00 | 48 | 1003.1 |
| 20260905060035 | 70 | 34 | 0.0 | 0.0 | 0.00 | 0.00 | 0.00 | 48 | 1003.0 |
| 20260905054510 | 71 | 34 | 0.0 | 3.5 | 0.00 | 0.00 | 0.00 | 44 | 1003.0 |
| 20260905053012 | 71 | 34 | 2.6 | 4.3 | 0.00 | 0.00 | 0.00 | 42 | 1003.0 |
| 20260905051503 | 73 | 360 | 3.5 | 4.3 | 0.00 | 0.00 | 0.00 | 42 | 1002.9 |